Northeast Philadelphia, PA

11:14 PM EDT on October 15, 2019 (GMT -0400)
Northeast Philadelphia

Weather History for KPNE - August, 2019

Change the Weather History Date:

Saturday, August 17, 2019

  Actual Average Record
Temperature  
Mean Temperature 82 °F -  
Max Temperature 91 °F 83 °F 97 °F (1997)
Min Temperature 75 °F 65 °F 59 °F (2013)
Cooling Degree Days 18    
Growing Degree Days 32 (Base 50)    
Moisture  
Dew Point 72 °F    
Average Humidity 72    
Maximum Humidity 89    
Minimum Humidity 50    
Precipitation  
Precipitation 0.00 in - - ()
Sea Level Pressure  
Sea Level Pressure 30.01 in    
Wind  
Wind Speed 4 mph (East)    
Max Wind Speed 7 mph    
Max Gust Speed -    
Visibility 10 miles    
Events      
Averages and records for this station are not official NWS values.
T = Trace of Precipitation, MM = Missing Value Source: NWS Daily Summary

Daily Weather History Graph

Daily Weather History Graph

Search for Another Location

Airport or City:

Astronomy

Aug. 17, 2019 Rise Set
Actual Time 6:13 AM EDT 7:54 PM EDT
Civil Twilight 5:44 AM EDT 8:23 PM EDT
Nautical Twilight 5:09 AM EDT 8:58 PM EDT
Astronomical Twilight 4:31 AM EDT 9:35 PM EDT
Moon 9:21 PM EDT (8/17) 7:59 AM EDT (8/17)
Length of Visible Light 14h 38m
Length of Day
13h 41m
Waning Gibbous, 96% of the Moon is Illuminated
Aug 17
Waning Gibbous
Aug 23
Last Quarter
Aug 30
New
Sep 5
First Quarter
Sep 14
Full

Hourly Weather History & Observations

Time (EDT) Temp. Heat Index Dew Point Humidity Pressure Visibility Wind Dir Wind Speed Gust Speed Precip Events Conditions
12:03 AM 77.0 °F - 72.0 °F 84% 30.03 in 10.0 mi SE 5.8 mph - N/A   Mostly Cloudy
12:54 AM 77.0 °F - 72.0 °F 84% 30.04 in 10.0 mi ESE 4.6 mph - N/A   Overcast
1:54 AM 75.9 °F - 72.0 °F 87% 30.03 in 10.0 mi East 5.8 mph - N/A   Overcast
2:09 AM 75.9 °F - 72.0 °F 87% 30.03 in 9.0 mi East 5.8 mph - N/A   Overcast
2:50 AM 75.2 °F - 71.6 °F 89% 30.03 in 10.0 mi East 3.5 mph - N/A   Overcast
2:54 AM 77.0 °F - 72.0 °F 84% 30.03 in 10.0 mi East 4.6 mph - N/A   Overcast
3:54 AM 77.0 °F - 72.0 °F 84% 30.02 in 10.0 mi NE 4.6 mph - N/A   Overcast
4:54 AM 77.0 °F - 72.0 °F 84% 30.01 in 10.0 mi ENE 3.5 mph - N/A   Overcast
5:45 AM 77.0 °F - 72.0 °F 84% 30.02 in 9.0 mi Calm Calm - N/A   Overcast
5:54 AM 77.0 °F - 72.0 °F 84% 30.02 in 8.0 mi Calm Calm - N/A   Overcast
6:54 AM 77.0 °F - 72.0 °F 84% 30.01 in 7.0 mi ENE 3.5 mph - N/A   Overcast
7:54 AM 78.1 °F - 73.0 °F 84% 30.02 in 8.0 mi NE 4.6 mph - N/A   Overcast
8:17 AM 78.1 °F - 73.0 °F 84% 30.02 in 9.0 mi ENE 3.5 mph - N/A   Overcast
8:54 AM 80.1 °F 84.2 °F 73.0 °F 79% 30.03 in 10.0 mi NE 5.8 mph - N/A   Overcast
9:09 AM 81.0 °F 85.2 °F 72.0 °F 74% 30.02 in 10.0 mi Calm Calm - N/A   Mostly Cloudy
9:20 AM 81.0 °F 85.2 °F 72.0 °F 74% 30.02 in 10.0 mi NNE 4.6 mph - N/A   Scattered Clouds
9:54 AM 81.0 °F 84.9 °F 71.1 °F 72% 30.02 in 10.0 mi Calm Calm - N/A   Scattered Clouds
10:02 AM 82.0 °F 86.3 °F 71.1 °F 69% 30.03 in 10.0 mi Variable 4.6 mph - N/A   Mostly Cloudy
10:28 AM 84.0 °F 89.0 °F 71.1 °F 65% 30.04 in 10.0 mi Variable 3.5 mph - N/A   Overcast
10:54 AM 84.9 °F 90.1 °F 71.1 °F 63% 30.04 in 10.0 mi NNE 4.6 mph - N/A   Scattered Clouds
11:54 AM 87.1 °F 92.8 °F 71.1 °F 59% 30.03 in 10.0 mi NE 5.8 mph - N/A   Mostly Cloudy
12:54 PM 88.0 °F 94.7 °F 72.0 °F 59% 30.01 in 10.0 mi NE 4.6 mph - N/A   Clear
1:54 PM 89.1 °F 95.0 °F 71.1 °F 55% 30.00 in 10.0 mi East 6.9 mph - N/A   Partly Cloudy
2:54 PM 88.0 °F 92.9 °F 70.0 °F 55% 29.99 in 10.0 mi Variable 3.5 mph - N/A   Partly Cloudy
3:54 PM 89.1 °F 94.1 °F 70.0 °F 53% 29.96 in 10.0 mi East 4.6 mph - N/A   Scattered Clouds
4:54 PM 90.0 °F 95.4 °F 70.0 °F 52% 29.95 in 10.0 mi SE 6.9 mph - N/A   Mostly Cloudy
5:54 PM 89.1 °F 92.9 °F 68.0 °F 50% 29.96 in 10.0 mi Variable 4.6 mph - N/A   Scattered Clouds
6:54 PM 89.1 °F 93.7 °F 69.1 °F 52% 29.94 in 10.0 mi Variable 3.5 mph - N/A   Mostly Cloudy
7:54 PM 86.0 °F 93.8 °F 73.9 °F 67% 29.96 in 10.0 mi Calm Calm - N/A   Scattered Clouds
8:54 PM 82.9 °F 88.8 °F 73.0 °F 72% 29.97 in 10.0 mi Calm Calm - N/A   Partly Cloudy
9:54 PM 82.9 °F 88.0 °F 72.0 °F 69% 29.99 in 10.0 mi SW 6.9 mph - N/A   Clear
10:54 PM 82.0 °F 86.7 °F 72.0 °F 71% 29.99 in 10.0 mi SSW 5.8 mph - N/A   Clear
11:54 PM 81.0 °F 85.8 °F 73.0 °F 77% 29.98 in 10.0 mi SSW 5.8 mph - N/A   Clear